AAL412 KRAP-KMSP

Flight info

Callsign AAL412
Flight time 1h 14m
Altitude 35000
Route KP87A UFFDA TORGY4
Aircraft AAL/M-SDE2E3FGHIRWXY/LB1

Departure

Time 2026-05-03 23:08
Airport Rapid City Regional Airport (KRAP)

Arrival

Time 2026-05-04 00:22
Airport Minneapolis–Saint Paul International Airport / Wold–Chamberlain Field (KMSP)
Time Latitude Longitude Altitude Speed Heading
2026-05-03 22:55 44.03980 -103.05988 3161 ft 0 kts 211°
2026-05-03 23:01 44.03985 -103.05984 3161 ft 0 kts 193°
2026-05-03 23:01 44.03991 -103.05984 3161 ft 1 kts 165°
2026-05-03 23:01 44.04004 -103.05991 3162 ft 2 kts 166°
2026-05-03 23:02 44.04012 -103.05994 3162 ft 0 kts 181°
2026-05-03 23:02 44.04018 -103.05993 3162 ft 0 kts 210°
2026-05-03 23:02 44.04022 -103.05988 3162 ft 0 kts 239°
2026-05-03 23:02 44.04024 -103.05980 3162 ft 0 kts 268°
2026-05-03 23:03 44.04024 -103.05971 3162 ft 0 kts 297°
2026-05-03 23:03 44.04020 -103.05965 3162 ft 1 kts 321°
2026-05-03 23:03 44.04019 -103.05964 3162 ft 0 kts 321°
2026-05-03 23:04 44.04019 -103.05965 3162 ft 0 kts 321°
2026-05-03 23:04 44.04042 -103.05971 3163 ft 5 kts
2026-05-03 23:05 44.04094 -103.05953 3164 ft 9 kts 22°
2026-05-03 23:05 44.04164 -103.05886 3164 ft 15 kts 54°
2026-05-03 23:05 44.04111 -103.05752 3163 ft 21 kts 150°
2026-05-03 23:05 44.03961 -103.05638 3159 ft 28 kts 152°
2026-05-03 23:06 44.03835 -103.05544 3153 ft 32 kts 152°
2026-05-03 23:06 44.03577 -103.05354 3139 ft 29 kts 152°
2026-05-03 23:06 44.03383 -103.05210 3126 ft 32 kts 151°
2026-05-03 23:06 44.03259 -103.05108 3118 ft 10 kts 125°
2026-05-03 23:07 44.03279 -103.04989 3117 ft 14 kts 43°
2026-05-03 23:07 44.03367 -103.05006 3120 ft 14 kts 332°
2026-05-03 23:07 44.03618 -103.05190 3132 ft 79 kts 331°
2026-05-03 23:07 44.04327 -103.05717 3165 ft 150 kts 332°
2026-05-03 23:08 44.05323 -103.06471 3700 ft 168 kts 330°
2026-05-03 23:08 44.06364 -103.07271 3963 ft 180 kts 335°
2026-05-03 23:08 44.07567 -103.07332 4048 ft 176 kts 26°
2026-05-03 23:08 44.08421 -103.06117 4440 ft 194 kts 64°
2026-05-03 23:09 44.08594 -103.04170 4866 ft 216 kts 96°
2026-05-03 23:09 44.08477 -103.02032 5400 ft 231 kts 85°
2026-05-03 23:09 44.08772 -102.99764 5900 ft 249 kts 73°
2026-05-03 23:09 44.09236 -102.97378 6502 ft 267 kts 73°
2026-05-03 23:10 44.09693 -102.94812 7215 ft 281 kts 75°
2026-05-03 23:10 44.10117 -102.92138 7979 ft 291 kts 75°
2026-05-03 23:10 44.10529 -102.89397 8854 ft 297 kts 75°
2026-05-03 23:10 44.10949 -102.86549 9746 ft 302 kts 75°
2026-05-03 23:11 44.11375 -102.83678 10499 ft 311 kts 74°
2026-05-03 23:11 44.11826 -102.80669 11002 ft 329 kts 75°
2026-05-03 23:11 44.12307 -102.77467 11527 ft 345 kts 75°
2026-05-03 23:11 44.12804 -102.74152 12001 ft 362 kts 75°
2026-05-03 23:12 44.13320 -102.70690 12713 ft 371 kts 75°
2026-05-03 23:12 44.13840 -102.67178 13459 ft 378 kts 75°
2026-05-03 23:12 44.14373 -102.63562 14328 ft 382 kts 75°
2026-05-03 23:12 44.14901 -102.59971 15151 ft 386 kts 75°
2026-05-03 23:13 44.15430 -102.56351 16055 ft 387 kts 75°
2026-05-03 23:13 44.15966 -102.52676 16853 ft 390 kts 75°
2026-05-03 23:13 44.16509 -102.48982 17605 ft 394 kts 75°
2026-05-03 23:13 44.17059 -102.45246 18388 ft 398 kts 75°
2026-05-03 23:14 44.17612 -102.41464 19146 ft 401 kts 75°
2026-05-03 23:14 44.18162 -102.37683 19930 ft 403 kts 75°
2026-05-03 23:14 44.18722 -102.33815 20631 ft 408 kts 76°
2026-05-03 23:14 44.19281 -102.29949 21373 ft 410 kts 76°
2026-05-03 23:15 44.19842 -102.26056 22030 ft 414 kts 75°
2026-05-03 23:15 44.20408 -102.22127 22708 ft 417 kts 75°
2026-05-03 23:15 44.20971 -102.18203 23394 ft 419 kts 75°
2026-05-03 23:15 44.21543 -102.14214 24066 ft 422 kts 75°
2026-05-03 23:16 44.22115 -102.10210 24666 ft 426 kts 75°
2026-05-03 23:16 44.22693 -102.06145 25305 ft 429 kts 75°
2026-05-03 23:16 44.23263 -102.02110 25904 ft 431 kts 75°
2026-05-03 23:16 44.23846 -101.97983 26434 ft 435 kts 75°
2026-05-03 23:17 44.24423 -101.93885 27022 ft 437 kts 75°
2026-05-03 23:17 44.25003 -101.89748 27504 ft 441 kts 75°
2026-05-03 23:17 44.25596 -101.85524 28003 ft 444 kts 75°
2026-05-03 23:17 44.26188 -101.81303 28457 ft 449 kts 75°
2026-05-03 23:18 44.26789 -101.76997 29036 ft 450 kts 75°
2026-05-03 23:18 44.27378 -101.72756 29533 ft 452 kts 75°
2026-05-03 23:18 44.27979 -101.68426 29952 ft 456 kts 75°
2026-05-03 23:18 44.28591 -101.64014 30420 ft 459 kts 76°
2026-05-03 23:19 44.29189 -101.59677 31011 ft 458 kts 75°
2026-05-03 23:19 44.29784 -101.55344 31577 ft 456 kts 75°
2026-05-03 23:19 44.30383 -101.50969 32202 ft 453 kts 75°
2026-05-03 23:19 44.30967 -101.46677 32804 ft 450 kts 75°
2026-05-03 23:20 44.31545 -101.42429 33344 ft 448 kts 75°
2026-05-03 23:20 44.32125 -101.38158 33854 ft 447 kts 75°
2026-05-03 23:20 44.32690 -101.33979 34421 ft 443 kts 76°
2026-05-03 23:20 44.33260 -101.29759 34798 ft 442 kts 76°
2026-05-03 23:21 44.33834 -101.25507 34832 ft 447 kts 75°
2026-05-03 23:21 44.34973 -101.17033 34833 ft 444 kts 76°
2026-05-03 23:22 44.36653 -101.04398 34823 ft 443 kts 76°
2026-05-03 23:22 44.37777 -100.95907 34817 ft 443 kts 76°
2026-05-03 23:23 44.38880 -100.87521 34818 ft 444 kts 76°
2026-05-03 23:23 44.39989 -100.79031 34819 ft 444 kts 76°
2026-05-03 23:24 44.41091 -100.70547 34820 ft 446 kts 75°
2026-05-03 23:24 44.42188 -100.62064 34803 ft 445 kts 76°
2026-05-03 23:25 44.43282 -100.53542 34816 ft 445 kts 76°
2026-05-03 23:25 44.44368 -100.45044 34812 ft 446 kts 75°
2026-05-03 23:26 44.45445 -100.36553 34812 ft 445 kts 75°
2026-05-03 23:26 44.46517 -100.28046 34828 ft 445 kts 76°
2026-05-03 23:27 44.47585 -100.19529 34812 ft 446 kts 76°
2026-05-03 23:27 44.48651 -100.10967 34813 ft 447 kts 76°
2026-05-03 23:28 44.49703 -100.02406 34808 ft 446 kts 77°
2026-05-03 23:28 44.50303 -99.93793 34805 ft 450 kts 84°
2026-05-03 23:29 44.50427 -99.85010 34807 ft 452 kts 85°
2026-05-03 23:29 44.50471 -99.76218 34809 ft 453 kts 85°
2026-05-03 23:30 44.50528 -99.67434 34810 ft 452 kts 85°
2026-05-03 23:30 44.50608 -99.58671 34799 ft 452 kts 85°
2026-05-03 23:31 44.50699 -99.49853 34812 ft 453 kts 85°
2026-05-03 23:31 44.50793 -99.41079 34805 ft 452 kts 85°
2026-05-03 23:32 44.50884 -99.32309 34804 ft 454 kts 85°
2026-05-03 23:32 44.50970 -99.23483 34809 ft 452 kts 85°
2026-05-03 23:33 44.51050 -99.14706 34800 ft 454 kts 85°
2026-05-03 23:33 44.51124 -99.05907 34795 ft 454 kts 85°
2026-05-03 23:34 44.51190 -98.97079 34782 ft 453 kts 85°
2026-05-03 23:34 44.51249 -98.88292 34785 ft 455 kts 85°
2026-05-03 23:35 44.51302 -98.79427 34792 ft 454 kts 85°
2026-05-03 23:35 44.51346 -98.70576 34780 ft 454 kts 85°
2026-05-03 23:36 44.51383 -98.61788 34795 ft 454 kts 85°
2026-05-03 23:36 44.51415 -98.52969 34783 ft 454 kts 85°
2026-05-03 23:37 44.51442 -98.44133 34794 ft 456 kts 85°
2026-05-03 23:37 44.51460 -98.35217 34799 ft 455 kts 85°
2026-05-03 23:38 44.51472 -98.26434 34797 ft 456 kts 86°
2026-05-03 23:38 44.51477 -98.17558 34793 ft 456 kts 86°
2026-05-03 23:39 44.51476 -98.10541 34792 ft 456 kts 86°
2026-05-03 23:39 44.51472 -98.04835 34790 ft 455 kts 86°
2026-05-03 23:40 44.51434 -97.83609 34794 ft 455 kts 86°
2026-05-03 23:41 44.51406 -97.74686 34799 ft 458 kts 86°
2026-05-03 23:41 44.51369 -97.65803 34823 ft 458 kts 86°
2026-05-03 23:42 44.51327 -97.56915 34801 ft 458 kts 86°
2026-05-03 23:42 44.51276 -97.48055 34803 ft 458 kts 86°
2026-05-03 23:43 44.51220 -97.39111 34819 ft 459 kts 86°
2026-05-03 23:43 44.51158 -97.30176 34807 ft 459 kts 87°
2026-05-03 23:44 44.51088 -97.21300 34818 ft 459 kts 87°
2026-05-03 23:44 44.51009 -97.12396 34793 ft 460 kts 87°
2026-05-03 23:45 44.50923 -97.03444 34800 ft 461 kts 87°
2026-05-03 23:45 44.50833 -96.94522 34805 ft 461 kts 87°
2026-05-03 23:46 44.50734 -96.85545 34794 ft 461 kts 87°
2026-05-03 23:46 44.50629 -96.76574 34814 ft 462 kts 87°
2026-05-03 23:47 44.50517 -96.67608 34809 ft 461 kts 87°
2026-05-03 23:47 44.50398 -96.58673 34801 ft 460 kts 87°
2026-05-03 23:48 44.50272 -96.49734 34810 ft 462 kts 87°
2026-05-03 23:48 44.50139 -96.40764 34785 ft 461 kts 87°
2026-05-03 23:49 44.49999 -96.31792 34768 ft 462 kts 88°
2026-05-03 23:49 44.49850 -96.22811 34810 ft 465 kts 88°
2026-05-03 23:50 44.49721 -96.15271 34785 ft 464 kts 88°
2026-05-03 23:50 44.49903 -96.04851 34420 ft 458 kts 81°
2026-05-03 23:51 44.50230 -96.00460 33901 ft 455 kts 79°
2026-05-03 23:51 44.50634 -95.96062 33247 ft 454 kts 78°
2026-05-03 23:51 44.51067 -95.91700 32747 ft 450 kts 78°
2026-05-03 23:51 44.51498 -95.87413 32282 ft 445 kts 78°
2026-05-03 23:52 44.51919 -95.83196 31791 ft 441 kts 78°
2026-05-03 23:52 44.52334 -95.78939 31275 ft 437 kts 78°
2026-05-03 23:52 44.52732 -95.74773 30777 ft 434 kts 78°
2026-05-03 23:52 44.53121 -95.70628 30239 ft 430 kts 78°
2026-05-03 23:53 44.53500 -95.66516 29737 ft 425 kts 78°
2026-05-03 23:53 44.53870 -95.62441 29242 ft 421 kts 78°
2026-05-03 23:53 44.54232 -95.58416 28755 ft 416 kts 78°
2026-05-03 23:53 44.54588 -95.54412 28256 ft 412 kts 78°
2026-05-03 23:54 44.54935 -95.50492 27775 ft 408 kts 78°
2026-05-03 23:54 44.55284 -95.46541 27271 ft 405 kts 78°
2026-05-03 23:54 44.55622 -95.42705 26763 ft 402 kts 78°
2026-05-03 23:54 44.55957 -95.38811 26302 ft 399 kts 78°
2026-05-03 23:55 44.56295 -95.34941 25826 ft 400 kts 78°
2026-05-03 23:55 44.56629 -95.31132 25339 ft 398 kts 78°
2026-05-03 23:55 44.56965 -95.27277 24841 ft 394 kts 78°
2026-05-03 23:55 44.57290 -95.23522 24362 ft 390 kts 78°
2026-05-03 23:56 44.57610 -95.19783 23880 ft 386 kts 78°
2026-05-03 23:56 44.57928 -95.16065 23413 ft 382 kts 78°
2026-05-03 23:56 44.58240 -95.12407 22943 ft 379 kts 78°
2026-05-03 23:56 44.58552 -95.08740 22473 ft 375 kts 78°
2026-05-03 23:57 44.58856 -95.05141 21999 ft 373 kts 78°
2026-05-03 23:57 44.59159 -95.01552 21523 ft 370 kts 78°
2026-05-03 23:57 44.59454 -94.98043 21063 ft 367 kts 78°
2026-05-03 23:57 44.59751 -94.94499 20599 ft 365 kts 78°
2026-05-03 23:58 44.60046 -94.90964 20114 ft 363 kts 79°
2026-05-03 23:58 44.60335 -94.87492 19646 ft 360 kts 79°
2026-05-03 23:58 44.60621 -94.84037 19175 ft 359 kts 79°
2026-05-03 23:58 44.60905 -94.80592 18701 ft 357 kts 79°
2026-05-03 23:59 44.61190 -94.77119 18214 ft 355 kts 79°
2026-05-03 23:59 44.61469 -94.73699 17749 ft 353 kts 79°
2026-05-03 23:59 44.61743 -94.70320 17408 ft 347 kts 79°
2026-05-03 23:59 44.62009 -94.67013 17052 ft 342 kts 79°
2026-05-04 00:00 44.62278 -94.63673 16611 ft 341 kts 79°
2026-05-04 00:00 44.62542 -94.60410 16159 ft 340 kts 79°
2026-05-04 00:00 44.62809 -94.57098 15703 ft 339 kts 79°
2026-05-04 00:00 44.63068 -94.53861 15253 ft 337 kts 79°
2026-05-04 00:01 44.63329 -94.50585 14804 ft 336 kts 80°
2026-05-04 00:01 44.63585 -94.47369 14353 ft 335 kts 80°
2026-05-04 00:01 44.63842 -94.44118 13898 ft 334 kts 80°
2026-05-04 00:01 44.64097 -94.40891 13450 ft 333 kts 80°
2026-05-04 00:02 44.64393 -94.37673 13045 ft 330 kts 76°
2026-05-04 00:02 44.64909 -94.34603 12602 ft 328 kts 71°
2026-05-04 00:02 44.65587 -94.31526 12079 ft 328 kts 69°
2026-05-04 00:02 44.66302 -94.28530 11627 ft 327 kts 68°
2026-05-04 00:03 44.67022 -94.25519 11180 ft 325 kts 68°
2026-05-04 00:03 44.67721 -94.22529 10945 ft 318 kts 69°
2026-05-04 00:03 44.68383 -94.19637 10640 ft 312 kts 69°
2026-05-04 00:03 44.69041 -94.16739 10303 ft 309 kts 69°
2026-05-04 00:04 44.69676 -94.13915 10127 ft 299 kts 69°
2026-05-04 00:04 44.70295 -94.11152 10010 ft 291 kts 69°
2026-05-04 00:04 44.70903 -94.08448 10018 ft 296 kts 69°
2026-05-04 00:04 44.71524 -94.05694 10012 ft 296 kts 69°
2026-05-04 00:05 44.72145 -94.02922 10016 ft 296 kts 69°
2026-05-04 00:05 44.72754 -94.00204 10021 ft 295 kts 69°
2026-05-04 00:05 44.73377 -93.97414 10005 ft 295 kts 69°
2026-05-04 00:05 44.73986 -93.94685 10006 ft 295 kts 69°
2026-05-04 00:06 44.74603 -93.91919 10015 ft 296 kts 69°
2026-05-04 00:06 44.75211 -93.89188 10004 ft 295 kts 69°
2026-05-04 00:06 44.75827 -93.86423 10007 ft 295 kts 69°
2026-05-04 00:06 44.76441 -93.83674 9995 ft 294 kts 69°
2026-05-04 00:07 44.77055 -93.80929 9998 ft 295 kts 69°
2026-05-04 00:07 44.77666 -93.78186 9980 ft 294 kts 69°
2026-05-04 00:07 44.78276 -93.75448 9988 ft 295 kts 69°
2026-05-04 00:07 44.78885 -93.72710 9994 ft 295 kts 69°
2026-05-04 00:08 44.79501 -93.69932 9821 ft 297 kts 69°
2026-05-04 00:08 44.80108 -93.67192 9580 ft 294 kts 69°
2026-05-04 00:08 44.80705 -93.64488 9330 ft 292 kts 69°
2026-05-04 00:08 44.81305 -93.61770 9071 ft 291 kts 69°
2026-05-04 00:09 44.81906 -93.59045 8995 ft 287 kts 69°
2026-05-04 00:09 44.82497 -93.56367 8997 ft 290 kts 69°
2026-05-04 00:09 44.83100 -93.53628 8992 ft 291 kts 69°
2026-05-04 00:09 44.83697 -93.50915 8993 ft 290 kts 69°
2026-05-04 00:10 44.84288 -93.48222 8992 ft 291 kts 69°
2026-05-04 00:10 44.84844 -93.45464 8991 ft 293 kts 75°
2026-05-04 00:10 44.84988 -93.42602 8989 ft 297 kts 96°
2026-05-04 00:10 44.84328 -93.39866 8819 ft 301 kts 117°
2026-05-04 00:11 44.83221 -93.37360 8576 ft 298 kts 124°
2026-05-04 00:11 44.82065 -93.35004 8333 ft 296 kts 124°
2026-05-04 00:11 44.80926 -93.32616 8087 ft 293 kts 124°
2026-05-04 00:11 44.79839 -93.30237 8006 ft 280 kts 123°
2026-05-04 00:12 44.78851 -93.28006 8015 ft 261 kts 122°
2026-05-04 00:12 44.77907 -93.25843 8004 ft 259 kts 122°
2026-05-04 00:12 44.76979 -93.23676 8006 ft 259 kts 121°
2026-05-04 00:12 44.76065 -93.21501 8007 ft 260 kts 121°
2026-05-04 00:13 44.75147 -93.19308 7978 ft 257 kts 121°
2026-05-04 00:13 44.74257 -93.17178 7684 ft 253 kts 121°
2026-05-04 00:13 44.73369 -93.15041 7249 ft 254 kts 121°
2026-05-04 00:13 44.72483 -93.12898 6872 ft 253 kts 121°
2026-05-04 00:14 44.71606 -93.10767 6507 ft 250 kts 121°
2026-05-04 00:14 44.70746 -93.08661 6153 ft 248 kts 121°
2026-05-04 00:14 44.69907 -93.06602 5787 ft 246 kts 121°
2026-05-04 00:14 44.69053 -93.04504 5407 ft 245 kts 120°
2026-05-04 00:15 44.68527 -93.02276 5134 ft 236 kts 92°
2026-05-04 00:15 44.68838 -93.00163 5022 ft 216 kts 58°
2026-05-04 00:15 44.69839 -92.98778 4917 ft 197 kts 21°
2026-05-04 00:15 44.71125 -92.98210 4836 ft 194 kts
2026-05-04 00:16 44.72438 -92.97759 4716 ft 194 kts
2026-05-04 00:16 44.73745 -92.97303 4491 ft 194 kts
2026-05-04 00:16 44.75059 -92.96905 4217 ft 191 kts
2026-05-04 00:16 44.76355 -92.97103 3914 ft 184 kts 338°
2026-05-04 00:17 44.77409 -92.98026 3612 ft 181 kts 311°
2026-05-04 00:17 44.78154 -92.99418 3356 ft 178 kts 305°
2026-05-04 00:17 44.78861 -93.00798 3184 ft 167 kts 304°
2026-05-04 00:17 44.79457 -93.02082 3098 ft 149 kts 301°
2026-05-04 00:18 44.79977 -93.03262 2832 ft 137 kts 301°
2026-05-04 00:18 44.80465 -93.04369 2499 ft 133 kts 300°
2026-05-04 00:18 44.80952 -93.05471 2326 ft 129 kts 299°
2026-05-04 00:18 44.81419 -93.06562 2396 ft 132 kts 299°
2026-05-04 00:19 44.81886 -93.07638 2617 ft 126 kts 300°
2026-05-04 00:19 44.82343 -93.08646 2596 ft 123 kts 301°
2026-05-04 00:19 44.82834 -93.09718 2541 ft 129 kts 301°
2026-05-04 00:19 44.83282 -93.10712 2444 ft 123 kts 298°
2026-05-04 00:20 44.83706 -93.11804 2233 ft 125 kts 298°
2026-05-04 00:20 44.84175 -93.12873 1971 ft 133 kts 301°
2026-05-04 00:20 44.84660 -93.13947 1836 ft 130 kts 299°
2026-05-04 00:20 44.85135 -93.15054 1644 ft 132 kts 299°
2026-05-04 00:21 44.85619 -93.16150 1479 ft 132 kts 300°
2026-05-04 00:21 44.86104 -93.17249 1321 ft 131 kts 298°
2026-05-04 00:21 44.86577 -93.18356 1120 ft 136 kts 300°
2026-05-04 00:21 44.87086 -93.19479 944 ft 135 kts 299°
2026-05-04 00:22 44.87566 -93.20593 813 ft 126 kts 299°
2026-05-04 00:22 44.87897 -93.21378 824 ft 59 kts 302°
2026-05-04 00:22 44.88065 -93.21758 827 ft 41 kts 301°
2026-05-04 00:22 44.88174 -93.21996 830 ft 15 kts 325°
2026-05-04 00:23 44.88246 -93.21994 830 ft 9 kts 27°
2026-05-04 00:23 44.88305 -93.21939 829 ft 10 kts 43°
2026-05-04 00:23 44.88317 -93.21857 830 ft 7 kts 92°
2026-05-04 00:23 44.88304 -93.21782 829 ft 6 kts 118°
2026-05-04 00:24 44.88292 -93.21725 828 ft 5 kts 71°
2026-05-04 00:24 44.88309 -93.21678 827 ft 6 kts 55°
2026-05-04 00:24 44.88326 -93.21645 827 ft 2 kts 52°
2026-05-04 00:24 44.88337 -93.21626 827 ft 1 kts 52°
2026-05-04 00:25 44.88338 -93.21624 827 ft 0 kts 52°